Hourly Data Report for September 21, 2016

SHEARWATER RCS
NOVA SCOTIA

44°37'47.000" N
63°30'48.000" W
24.00 m
8205092
71264
AAW

Download Data

Hourly Data (September 2016)
Hourly Data Report for September 21, 2016
TIME Temp Definition
°C
Dew Point Definition
°C
Rel Hum Definition
%
Wind Dir Definition
10's deg

Wind Spd Definition
km/h
Visibility Definition
km
Stn Press Definition
kPa
Hmdx Definition


Wind Chill Definition


Weather Definition


00:00 18.2 17.3 95 21 3   101.40     LegendNANA
01:00 18.1 17.2 95 26 1   101.41     LegendNANA
02:00 18.1 17.0 93 26 4   101.38     LegendNANA
03:00 18.2 16.9 92 22 6   101.35     LegendNANA
04:00 18.1 16.8 92 23 8   101.36     LegendNANA
05:00 17.9 16.6 92 24 7   101.38     LegendNANA
06:00 17.6 16.4 93 23 5   101.37     LegendNANA
07:00 17.7 16.5 93 21 2   101.40     LegendNANA
08:00 19.1 16.9 87 24 7   101.43     LegendNANA
09:00 20.0 16.6 81 25 6   101.45 25   LegendNANA
10:00 21.4 17.2 77 25 5   101.44 27   LegendNANA
11:00 23.4 17.3 68 23 10   101.39 29   LegendNANA
12:00 24.2 14.9 56 26 8   101.34 28   LegendNANA
13:00 26.2 12.3 42 29 14   101.30 29   LegendNANA
14:00 25.6 8.9 35 31 20   101.29 26   LegendNANA
15:00 25.3 8.3 34 31 18   101.25 26   LegendNANA
16:00 24.6 7.5 33 31 17   101.24 25   LegendNANA
17:00 24.0 5.8 31 29 13   101.30     LegendNANA
18:00 21.8 6.4 37 31 12   101.34     LegendNANA
19:00 19.9 8.2 47 32 6   101.39     LegendNANA
20:00 16.4 9.9 66 30 2   101.43     LegendNANA
21:00 15.1 9.7 70 0 1   101.47     LegendNANA
22:00 14.3 9.7 74   0   101.46     LegendNANA
23:00 16.3 9.3 63 29 3   101.46     LegendNANA

Notes on Data Quality.

Legend

  • E = Estimated
  • M = Missing
  • NA = Not Available*
  • [empty] = Indicates an unobserved value
Date modified: